Location: Crayja
(6.2254°N, 10.6273°W)
Time: 14:31:05
(UTC+00:00)

Cosmos 614 Rocket - Pass Details

Date: 17 February 2020
Orbit: 733 x 764 km, 74.1° (Epoch: 30 March)

Event Time Altitude Azimuth Distance (km) Brightness Sun altitude
Rises 05:07:41 0° 192° (SSW) 3,157 7.2 -27.9°
Reaches altitude 10° 05:10:01 10° 191° (S) 2,237 6.4 -27.3°
Maximum altitude 05:15:05 87° 105° (ESE) 744 3.8 -26.1°
Drops below altitude 10° 05:20:11 10° 13° (NNE) 2,250 6.4 -24.8°
Sets 05:22:33 0° 13° (NNE) 3,178 7.2 -24.2°
